DateTimeUTC,F1_A11,F1_S11,BsB_S11,BsG_S11,BsR_S11,BbsB_S11,BbsG_S11,BbsR_S11,BaB_A11,BaG_A11,BaR_A11,Tu_S11,T_S11,Uu_S11,U_S11,P_S11,T1_A11
2021-02-07T18:00:00Z,00000200,21000000,,,,,,,0000.23,0000.22,0000.34,15.6,23.2,,00.0,0656.3,30.9
2021-02-07T18:01:00Z,00000200,21000000,,,,,,,0000.31,0000.07,-000.04,15.6,23.2,,00.0,0656.3,30.9
2021-02-07T18:02:00Z,00000200,21000000,,,,,,,0000.10,0000.38,0000.23,15.6,23.2,,00.0,0656.3,30.9
2021-02-07T18:03:00Z,00000200,61000000,,,,,,,0000.91,0000.85,0000.63,15.6,23.2,,00.0,0656.3,30.9
2021-02-07T18:04:00Z,00000200,41000000,0000.85,0000.79,0000.33,0000.65,0000.60,0000.15,0000.58,0000.49,0000.41,16.1,23.1,,00.0,0657.0,31.0
2021-02-07T18:05:00Z,00000200,01000000,0001.32,0000.90,0000.43,0000.36,0000.12,0000.22,0000.45,0000.26,0000.36,16.2,23.1,,00.0,0657.0,31.0
2021-02-07T18:06:00Z,00000200,01000000,0001.49,0000.93,0000.54,0000.63,0000.12,0000.12,0000.25,0000.47,0000.13,16.2,23.1,,00.0,0657.0,31.0
2021-02-07T18:07:00Z,00000200,01000000,0000.90,0000.88,0000.69,-000.03,0000.36,0000.25,0000.28,0000.27,0000.44,16.3,23.1,,00.0,0656.9,31.0
2021-02-07T18:08:00Z,00000200,01000000,0001.38,0000.81,0000.20,0000.02,0000.37,0000.19,0000.32,-000.04,-000.11,16.2,23.1,,00.0,0656.9,31.0
2021-02-07T18:09:00Z,00000200,01000000,0001.62,0001.01,0000.25,0000.42,-000.01,0000.26,0002.67,0002.86,0001.89,16.2,23.0,,00.0,0656.9,31.0
2021-02-07T18:10:00Z,00000200,01000000,0006.62,0004.55,0002.66,0001.37,0000.90,0000.85,0065.41,0059.51,0046.95,16.1,23.0,,00.0,0656.8,31.0
2021-02-07T18:11:00Z,00000200,01000000,0004.35,0003.49,0001.94,0000.97,0000.67,0000.44,0045.10,0041.87,0033.52,16.1,23.0,,00.0,0656.9,30.9
2021-02-07T18:12:00Z,00000200,01000000,0002.45,0001.11,0000.38,-000.22,0000.06,0000.11,0002.95,0003.02,0001.97,16.1,23.0,,00.0,0656.9,30.9
2021-02-07T18:13:00Z,00000200,01000000,0001.75,0001.46,0000.41,0000.59,0000.02,0000.07,0001.03,0000.82,0000.88,16.0,22.9,,00.0,0657.0,30.9
2021-02-07T18:14:00Z,00000200,01000000,0001.71,0001.09,0000.58,0000.45,0000.13,-000.16,0000.97,0000.89,0000.76,16.0,22.9,,00.0,0657.0,30.9
2021-02-07T18:15:00Z,00000200,01000000,0001.37,0001.08,0000.63,0000.36,0000.19,-000.08,0000.89,0000.71,0000.50,16.0,22.9,,00.0,0656.9,30.9
2021-02-07T18:16:00Z,00000200,01000000,0000.94,0001.18,0000.59,-000.08,0000.21,0000.24,0001.15,0001.37,0000.79,16.0,22.9,,00.0,0657.0,30.9
2021-02-07T18:17:00Z,00000200,01000000,0002.18,0000.98,0000.57,0000.20,0000.28,0000.13,0000.84,0000.37,0000.69,16.1,22.9,,00.0,0657.0,30.9
2021-02-07T18:18:00Z,00000200,01000000,0000.86,0001.38,0000.41,-000.12,0000.00,-000.05,0000.68,0000.56,0000.38,16.1,23.0,,00.0,0657.0,30.9
2021-02-07T18:19:00Z,00000200,01000000,0002.11,0001.11,0000.66,0000.24,0000.21,0000.08,0000.78,0000.86,0000.61,16.2,23.0,,00.0,0657.0,31.0
2021-02-07T18:20:00Z,00000200,01000000,0001.04,0001.20,0000.30,0000.24,0000.24,-000.03,0000.11,0000.18,0000.05,16.3,23.0,,00.0,0657.0,31.0
2021-02-07T18:21:00Z,00000200,01000000,0001.62,0001.26,0000.85,0000.61,0000.00,0000.19,0000.46,0000.62,0000.56,16.4,23.1,,00.0,0657.0,31.0
2021-02-07T18:22:00Z,00000200,01000000,0001.75,0001.14,0000.53,0000.13,0000.24,0000.15,0000.64,0000.05,-000.06,16.4,23.1,,00.0,0657.0,31.0
2021-02-07T18:23:00Z,00000200,01000000,0001.64,0001.21,0000.62,-000.05,0000.43,0000.31,0000.07,0000.36,0000.41,16.4,23.1,,00.0,0657.0,31.0
2021-02-07T18:24:00Z,00000200,01000000,0001.74,0001.40,0000.63,0000.37,0000.24,0000.34,0000.53,0000.37,0000.16,16.4,23.1,,00.0,0657.0,31.0
2021-02-07T18:25:00Z,00000200,01000000,0002.09,0001.91,0000.67,0000.46,0000.20,0000.19,0007.55,0007.11,0005.19,16.4,23.1,,00.0,0657.0,31.0
2021-02-07T18:26:00Z,00000200,01000000,0004.90,0003.14,0001.87,0001.27,0000.77,0000.48,0040.75,0037.43,0029.45,16.3,23.1,,00.0,0657.0,31.0
2021-02-07T18:27:00Z,00000200,01000000,0004.72,0003.74,0002.23,0000.83,0000.61,0000.93,0049.92,0046.01,0036.52,16.3,23.0,,00.0,0657.1,30.9
2021-02-07T18:28:00Z,00000200,01000000,0001.99,0001.09,0000.61,0000.52,0000.07,-000.17,0001.85,0001.43,0001.46,16.2,23.0,,00.0,0657.2,30.9
2021-02-07T18:29:00Z,00000200,01000000,0001.98,0001.58,0000.74,-000.21,0000.23,0000.19,0001.04,0000.57,0000.60,16.2,23.0,,00.0,0657.2,30.9
2021-02-07T18:30:00Z,00000200,01000000,0002.50,0001.34,0000.59,0000.61,0000.40,0000.31,0000.73,0001.19,0000.70,16.2,23.0,,00.0,0657.3,30.9
2021-02-07T18:31:00Z,00000200,01000000,0002.59,0001.32,0000.34,0000.55,0000.03,-000.10,0000.66,0000.62,0000.23,16.2,23.0,,00.0,0657.4,30.9
2021-02-07T18:32:00Z,00000200,01000000,0002.19,0001.20,0000.64,0000.09,0000.13,0000.25,0000.51,0000.90,0000.76,16.3,23.0,,00.0,0657.4,31.0
2021-02-07T18:33:00Z,00000200,01000000,0001.62,0001.34,0000.81,0000.40,0000.20,0000.13,0000.83,0000.44,0000.38,16.3,23.0,,00.0,0657.4,31.0
2021-02-07T18:34:00Z,00000200,01000000,0002.31,0001.23,0000.75,-000.07,0000.14,0000.24,0000.35,0000.29,0000.43,16.4,23.1,,00.0,0657.4,31.0
2021-02-07T18:35:00Z,00000200,01000000,0002.15,0001.47,0000.85,0000.53,0000.25,0000.09,0000.66,0000.38,0000.01,16.5,23.1,,00.0,0657.5,31.0
2021-02-07T18:36:00Z,00000200,01000000,0002.25,0001.91,0000.74,0000.27,0000.09,0000.18,0000.31,0000.85,0000.62,16.5,23.1,,00.0,0657.4,31.0
2021-02-07T18:37:00Z,00000200,01000000,0002.61,0001.76,0000.81,0000.13,0000.54,0000.23,0000.61,0000.04,0000.28,16.6,23.2,,00.0,0657.5,31.0
2021-02-07T18:38:00Z,00000200,01000000,0001.82,0001.56,0000.97,-000.01,0000.12,0000.15,0000.50,0000.54,0000.15,16.5,23.1,,00.0,0657.6,31.0
2021-02-07T18:39:00Z,00000200,01000000,0001.30,0001.11,0000.64,-000.06,0000.33,-000.04,-000.09,0000.29,0000.17,16.5,23.1,,00.0,0657.5,31.0
2021-02-07T18:40:00Z,00000200,01000000,0001.94,0001.30,0000.38,-000.17,0000.23,-000.09,0000.36,-000.05,-000.20,16.4,23.1,,00.0,0657.6,31.0
2021-02-07T18:41:00Z,00000200,01000000,0001.65,0001.15,0000.39,0000.44,0000.13,-000.09,0000.54,0000.19,0000.50,16.4,23.1,,00.0,0657.7,31.0
2021-02-07T18:42:00Z,00000200,01000000,0002.52,0000.86,0000.76,0000.61,0000.19,0000.12,0000.96,0001.25,0000.63,16.3,23.1,,00.0,0657.6,31.0
2021-02-07T18:43:00Z,00000200,01000000,0001.70,0001.24,0000.27,0000.07,0000.22,-000.24,0000.74,0000.58,0000.35,16.3,23.0,,00.0,0657.5,30.9
2021-02-07T18:44:00Z,00000200,01000000,0001.98,0001.10,0000.69,0000.49,0000.20,-000.07,0000.48,0000.43,0000.65,16.2,23.0,,00.0,0657.4,30.9
2021-02-07T18:45:00Z,00000200,01000000,0001.32,0001.60,0000.96,-000.00,0000.25,0000.20,0000.71,0000.18,0000.33,16.2,23.0,,00.0,0657.4,30.9
2021-02-07T18:46:00Z,00000200,01000000,0001.47,0001.35,0000.56,0000.56,0000.29,0000.13,0000.80,0001.02,0000.31,16.2,23.0,,00.0,0657.4,30.9
2021-02-07T18:47:00Z,00000200,01000000,0001.45,0001.42,0000.53,-000.37,0000.13,0000.25,0000.64,0000.73,0000.67,16.3,23.0,,00.0,0657.4,30.9
2021-02-07T18:48:00Z,00000200,01000000,0002.01,0001.32,0000.57,0000.53,0000.05,0000.22,0000.36,0000.27,0000.31,16.4,23.1,,00.0,0657.5,31.0
2021-02-07T18:49:00Z,00000200,01000000,0001.52,0000.99,0000.88,0000.28,0000.01,0000.27,0000.45,0000.43,0000.23,16.5,23.1,,00.0,0657.4,31.0
2021-02-07T18:50:00Z,00000200,01000000,0002.53,0001.49,0000.53,0000.23,0000.09,0000.12,0000.07,0000.24,-000.19,16.5,23.2,,00.0,0657.5,31.0
2021-02-07T18:51:00Z,00000200,01000000,0001.54,0001.29,0000.47,0000.03,0000.01,-000.03,0000.35,-000.04,0000.18,16.5,23.2,,00.0,0657.6,31.0
2021-02-07T18:52:00Z,00000200,01000000,0001.09,0001.18,0000.24,0000.17,0000.12,-000.08,-000.04,0000.11,0000.13,16.5,23.1,,00.0,0657.6,31.0
2021-02-07T18:53:00Z,00000200,01000000,0001.83,0001.35,0000.89,0000.48,0000.27,0000.10,0000.35,0000.28,0000.07,16.4,23.1,,00.0,0657.5,31.0
2021-02-07T18:54:00Z,00000200,01000000,0001.04,0001.24,0000.77,0000.37,0000.06,0000.20,0000.19,0000.51,0000.38,16.3,23.1,,00.0,0657.4,31.0
2021-02-07T18:55:00Z,00000200,01000000,0001.96,0001.05,0000.72,0000.59,0000.09,-000.08,0000.14,-000.13,-000.38,16.3,23.1,,00.0,0657.4,31.0
2021-02-07T18:56:00Z,00000200,01000000,0002.29,0001.10,0000.60,0000.45,-000.13,0000.33,0000.59,0000.27,0000.61,16.2,23.1,,00.0,0657.4,30.9
2021-02-07T18:57:00Z,00000200,41000000,,,,,,,0000.39,0000.38,-000.13,16.3,23.1,,00.0,0657.5,30.9
2021-02-07T18:58:00Z,00000200,61000000,,,,,,,0000.09,-000.17,0000.42,15.8,23.2,,00.0,0656.5,30.9
2021-02-07T18:59:00Z,00000200,21000000,,,,,,,-000.21,0000.15,0000.18,15.8,23.3,,00.0,0656.5,30.9
